• Join FlightAware (Why Join?)
  • Login
  • US Flag 
02:58PM EDT


 

Airport Tracker/Info


-or-


 

Live Flight TrackerFlight Track Log ✈ SKW5564 ✈ 12-Apr-2013 ✈ KIAD - KSTL

Flight Track Log - Related Links

Times and Time Zones

All times are in EDT time to prevent confusion due to time zone crossing. See the SKW5564 flight status page for this flight to view local times or setup timezone preferences in your user account.

Time Position Orientation Groundspeed Altitude Reporting Facility
EDT Latitude Longitude Course Direction KTS MPH feet Rate Location/Type
08:44AM 38.9000 -77.4667 270° West 170 196 2,900  Level Potomac TRACON
08:45AM 38.8500 -77.5167 218° Southwest 230 265 5,100 2,640 Climbing Potomac TRACON
08:46AM 38.8766 -77.8173 263° West  Level FlightAware Approximate
08:46AM 38.8167 -77.5833 237° Southwest 230 265 8,200  Level Potomac TRACON
08:47AM 38.8763 -77.9455 293° West  Level FlightAware Approximate
08:47AM 38.7833 -77.6667 243° Southwest 252 290 11,000  Level Potomac TRACON
08:48AM 38.9092 -78.0701 288° West  Level FlightAware Approximate
08:48AM 38.8167 -77.7500 297° West 270 311 13,500  Level Potomac TRACON
08:49AM 38.9461 -78.1922 303° West  Level FlightAware Approximate
08:50AM 38.9500 -78.3225 270° West  Level FlightAware Approximate
08:50AM 38.8483 -77.8600 290° West 293 337 15,200  Level Washington Center
08:51AM 38.8794 -77.9650 291° West 306 352 16,000 900 Climbing Washington Center
08:52AM 38.9169 -78.0808 293° West 327 376 17,000 1,320 Climbing Washington Center
08:53AM 38.9519 -78.1942 292° West 340 391 18,700 1,500 Climbing Washington Center
08:54AM 38.9619 -78.3094 276° West 340 391 20,000 1,320 Climbing Washington Center
08:55AM 38.9656 -78.4269 272° West 334 384 21,400 1,560 Climbing Washington Center
08:56AM 38.9689 -78.5444 272° West 334 384 23,200 1,620 Climbing Washington Center
08:57AM 38.9719 -78.6675 272° West 329 379 24,700 1,560 Climbing Washington Center
08:58AM 38.9750 -78.7931 272° West 341 392 26,400 1,500 Climbing Washington Center
08:59AM 38.9797 -78.9242 273° West 353 406 27,800 1,260 Climbing Washington Center
09:00AM 38.9825 -79.0550 272° West 364 419 29,000 1,080 Climbing Washington Center
09:01AM 38.9869 -79.1861 273° West 370 426 30,000 780 Climbing Washington Center
09:02AM 38.9933 -79.3147 274° West 381 438 30,600 1,260 Climbing Washington Center
09:03AM 38.9969 -79.4672 272° West 392 451 32,600 1,200 Climbing Washington Center
09:04AM 39.0006 -79.6064 272° West 392 451 33,000 180 Climbing Washington Center
09:05AM 39.0022 -79.7425 271° West 392 451 33,000  Level Washington Center
09:06AM 39.0039 -79.8789 271° West 385 443 33,000 300 Level Washington Center
09:07AM 39.0075 -80.0047 272° West 385 443 33,600 960 Climbing Washington Center
09:08AM 39.0069 -80.1356 270° West 385 443 35,000 1,020 Climbing Washington Center
09:08AM 39.0081 -80.2089 271° West 376 433 35,200 1,080 Climbing Indianapolis Center
09:09AM 39.0089 -80.3417 271° West 373 429 36,800 1,020 Climbing Indianapolis Center
09:10AM 39.0094 -80.4692 270° West 359 413 37,400 480 Climbing Indianapolis Center
09:11AM 39.0253 -80.5997 279° West 374 430 37,900 240 Climbing Indianapolis Center
09:12AM 39.0800 -80.7511 295° West 390 449 38,000  Climbing Indianapolis Center
09:13AM 39.1278 -80.8758 296° West 390 449 38,000  Level Indianapolis Center
09:14AM 39.1742 -81.0006 296° West 389 448 38,000  Level Indianapolis Center
09:15AM 39.2214 -81.1247 296° West 389 448 38,000  Level Indianapolis Center
09:16AM 39.2681 -81.2519 295° West 393 452 38,000  Level Indianapolis Center
09:17AM 39.3161 -81.3797 296° West 396 456 38,000  Level Indianapolis Center
09:18AM 39.3636 -81.5078 296° West 397 457 38,000  Level Indianapolis Center
09:19AM 39.4203 -81.6658 295° West 405 466 38,000  Level Indianapolis Center
09:20AM 39.4689 -81.7972 296° West 406 467 38,000  Level Indianapolis Center
09:21AM 39.5169 -81.9297 295° West 407 468 38,000  Level Indianapolis Center
09:22AM 39.5658 -82.0622 296° West 408 470 38,000  Level Indianapolis Center
09:24AM 39.6194 -82.2139 295° West 409 471 38,000  Level Indianapolis Center
09:25AM 39.6681 -82.3494 295° West 410 472 38,000  Level Indianapolis Center
09:26AM 39.7106 -82.4881 292° West 409 471 38,000  Level Indianapolis Center
09:27AM 39.7178 -82.6272 274° West 384 442 38,000  Level Indianapolis Center
09:28AM 39.7231 -82.7664 273° West 383 441 38,000  Level Indianapolis Center
09:29AM 39.7286 -82.9036 273° West 379 436 38,000  Level Indianapolis Center
09:30AM 39.7339 -83.0400 273° West 374 430 38,000  Level Indianapolis Center
09:31AM 39.7389 -83.1756 273° West 373 429 38,000  Level Indianapolis Center
09:32AM 39.7456 -83.3328 273° West 368 423 38,000  Level Indianapolis Center
09:33AM 39.7500 -83.4678 272° West 369 425 38,000  Level Indianapolis Center
09:34AM 39.7536 -83.6069 272° West 368 423 38,000  Level Indianapolis Center
09:35AM 39.7592 -83.7422 273° West 369 425 38,000  Level Indianapolis Center
09:36AM 39.7636 -83.8761 273° West 368 423 38,000  Level Indianapolis Center
09:37AM 39.7681 -84.0119 272° West 371 427 38,000  Level Indianapolis Center
09:38AM 39.7711 -84.1472 272° West 372 428 38,000  Level Indianapolis Center
09:39AM 39.7764 -84.2833 273° West 373 429 38,000  Level Indianapolis Center
09:40AM 39.7797 -84.4197 272° West 374 430 38,000  Level Indianapolis Center
09:41AM 39.7825 -84.5564 272° West 377 434 38,000  Level Indianapolis Center
09:42AM 39.7853 -84.7181 271° West 378 435 38,000  Level Indianapolis Center
09:43AM 39.7903 -84.8569 273° West 382 440 38,000  Level Indianapolis Center
09:44AM 39.7922 -84.9953 271° West 380 437 38,000  Level Indianapolis Center
09:45AM 39.7967 -85.1328 272° West 377 434 38,000  Level Indianapolis Center
09:46AM 39.7975 -85.2711 270° West 379 436 38,000  Level Indianapolis Center
09:47AM 39.8014 -85.4097 272° West 380 437 38,000  Level Indianapolis Center
09:48AM 39.8031 -85.5475 271° West 379 436 38,000  Level Indianapolis Center
09:49AM 39.8067 -85.7089 272° West 381 438 38,000  Level Indianapolis Center
09:50AM 39.8081 -85.8481 271° West 380 437 38,000  Level Indianapolis Center
09:51AM 39.8092 -85.9917 271° West 383 441 38,000  Level Indianapolis Center
09:52AM 39.8117 -86.1306 271° West 383 441 38,000  Level Indianapolis Center
09:54AM 39.8125 -86.2686 270° West 382 440 38,000  Level Indianapolis Center
09:55AM 39.8036 -86.4028 265° West 376 433 38,000  Level Indianapolis Center
09:56AM 39.7725 -86.5331 253° West 376 433 38,000  Level Indianapolis Center
09:57AM 39.7417 -86.6631 253° West 375 432 38,000  Level Indianapolis Center
09:58AM 39.7042 -86.8186 253° West 376 433 38,000 -60 Level Indianapolis Center
09:59AM 39.6714 -86.9481 252° West 377 434 37,900 -300 Descending Indianapolis Center
10:00AM 39.6386 -87.0803 252° West 384 442 37,400 -540 Descending Indianapolis Center
10:01AM 39.6042 -87.2156 252° West 394 453 36,800 -1,020 Descending Indianapolis Center
10:02AM 39.5697 -87.3539 252° West 400 460 35,400 -1,380 Descending Indianapolis Center
10:03AM 39.5369 -87.4822 252° West 382 440 34,000 -1,380 Descending Indianapolis Center
10:04AM 39.5058 -87.6053 252° West 364 419 32,600 -1,500 Descending Indianapolis Center
10:05AM 39.4686 -87.7478 251° West 352 405 30,900 -1,500 Descending Indianapolis Center
10:06AM 39.4392 -87.8642 252° West 346 398 29,500 -1,380 Descending Indianapolis Center
10:07AM 39.4092 -87.9761 251° West 337 388 28,100 -720 Descending Indianapolis Center
10:08AM 39.3744 -88.1133 252° West 335 386 28,000 -60 Descending Kansas City Center
10:09AM 39.3433 -88.2319 251° West 341 392 28,000  Level Kansas City Center
10:10AM 39.3108 -88.3575 252° West 358 412 28,000  Level Kansas City Center
10:11AM 39.2744 -88.4883 250° West 378 435 28,000 -120 Level Kansas City Center
10:12AM 39.2364 -88.6294 251° West 391 450 27,800 -1,320 Descending Kansas City Center
10:13AM 39.2017 -88.7586 251° West 387 445 25,300 -2,400 Descending Kansas City Center
10:14AM 39.1708 -88.8781 252° West 362 417 22,900 -2,520 Descending Kansas City Center
10:15AM 39.1311 -89.0197 250° West 354 407 20,200 -2,280 Descending Kansas City Center
10:16AM 39.0994 -89.1378 251° West 350 403 18,200 -2,160 Descending Kansas City Center
10:17AM 39.0747 -89.1833 235° Southwest 349 402 16,400 -2,160 Descending FAA TRACON SMA TRACON (SMA)
10:18AM 39.0686 -89.2208 258° West 347 399 15,800 -1,800 Descending FAA TRACON SMA TRACON (SMA)
10:18AM 39.0597 -89.2567 252° West 345 397 15,200 -2,040 Descending FAA TRACON SMA TRACON (SMA)
10:18AM 39.0492 -89.3022 253° West 344 396 14,500 -1,980 Descending FAA TRACON SMA TRACON (SMA)
10:19AM 39.0417 -89.3381 255° West 340 391 13,900 -2,100 Descending FAA TRACON SMA TRACON (SMA)
10:19AM 39.0297 -89.3819 251° West 339 390 13,100 -1,980 Descending FAA TRACON SMA TRACON (SMA)
10:19AM 39.0217 -89.4175 254° West 336 387 12,600 -1,560 Descending FAA TRACON SMA TRACON (SMA)
10:20AM 39.0125 -89.4522 251° West 332 382 12,100 -1,740 Descending FAA TRACON SMA TRACON (SMA)
10:20AM 39.0056 -89.4872 256° West 330 380 11,500 -1,620 Descending FAA TRACON SMA TRACON (SMA)
10:20AM 38.9947 -89.5297 252° West 327 376 11,000 -900 Descending FAA TRACON SMA TRACON (SMA)
10:21AM 38.9814 -89.5594 240° Southwest 318 366 10,900 -180 Descending FAA TRACON SMA TRACON (SMA)
10:21AM 38.9619 -89.5786 217° Southwest 303 349 10,900 -600 Level FAA TRACON SMA TRACON (SMA)
10:21AM 38.9372 -89.5989 213° Southwest 281 323 10,500 -1,200 Descending FAA TRACON SMA TRACON (SMA)
10:22AM 38.9189 -89.6142 213° Southwest 268 308 10,100 -1,260 Descending FAA TRACON SMA TRACON (SMA)
10:22AM 38.9003 -89.6289 212° Southwest 257 296 9,700 -1,200 Descending FAA TRACON SMA TRACON (SMA)
10:22AM 38.8786 -89.6464 212° Southwest 243 280 9,300 -1,200 Descending FAA TRACON SMA TRACON (SMA)
10:23AM 38.8622 -89.6603 213° Southwest 234 269 8,900 -1,080 Descending FAA TRACON SMA TRACON (SMA)
10:23AM 38.8464 -89.6742 214° Southwest 228 262 8,600 -1,200 Descending FAA TRACON SMA TRACON (SMA)
10:23AM 38.8300 -89.6933 222° Southwest 217 250 8,100 -1,380 Descending FAA TRACON SMA TRACON (SMA)
10:24AM 38.8192 -89.7108 232° Southwest 209 241 7,700 -1,260 Descending FAA TRACON SMA TRACON (SMA)
10:24AM 38.8078 -89.7294 232° Southwest 207 238 7,300 -1,080 Descending FAA TRACON SMA TRACON (SMA)
10:24AM 38.7944 -89.7544 236° Southwest 217 250 7,000 -600 Descending FAA TRACON SMA TRACON (SMA)
10:25AM 38.7825 -89.7742 232° Southwest 223 257 6,900 -180 Descending FAA TRACON SMA TRACON (SMA)
10:25AM 38.7714 -89.7931 233° Southwest 222 255 6,900 -300 Level FAA TRACON SMA TRACON (SMA)
10:25AM 38.7572 -89.8167 232° Southwest 217 250 6,700 -900 Descending FAA TRACON SMA TRACON (SMA)
10:26AM 38.7467 -89.8353 234° Southwest 213 245 6,300 -1,260 Descending FAA TRACON SMA TRACON (SMA)
10:26AM 38.7361 -89.8536 234° Southwest 210 242 5,900 -1,200 Descending FAA TRACON SMA TRACON (SMA)
10:26AM 38.7269 -89.8789 245° Southwest 206 237 5,500 -1,200 Descending FAA TRACON SMA TRACON (SMA)
10:27AM 38.7214 -89.8997 251° West 202 232 5,100 -960 Descending FAA TRACON SMA TRACON (SMA)
10:27AM 38.7158 -89.9208 251° West 202 232 4,900 -780 Descending FAA TRACON SMA TRACON (SMA)
10:27AM 38.7081 -89.9467 249° West 202 232 4,600 -1,140 Descending FAA TRACON SMA TRACON (SMA)
10:28AM 38.6961 -89.9881 250° West 202 232 3,800 -1,140 Descending FAA TRACON SMA TRACON (SMA)
10:28AM 38.6886 -90.0136 249° West 202 232 3,500 -600 Descending FAA TRACON SMA TRACON (SMA)
10:29AM 38.6828 -90.0336 250° West 196 226 3,400 -180 Descending FAA TRACON SMA TRACON (SMA)
10:29AM 38.6772 -90.0533 250° West 193 222 3,400  Level FAA TRACON SMA TRACON (SMA)
10:29AM 38.6700 -90.0778 249° West 192 221 3,400  Level FAA TRACON SMA TRACON (SMA)
10:30AM 38.6644 -90.0978 250° West 192 221 3,400  Level FAA TRACON SMA TRACON (SMA)
10:30AM 38.6603 -90.1183 255° West 195 224 3,400  Level FAA TRACON SMA TRACON (SMA)
10:30AM 38.6658 -90.1431 286° West 195 224 3,400 -300 Level FAA TRACON SMA TRACON (SMA)
10:31AM 38.6742 -90.1611 301° West 192 221 3,200 -960 Descending FAA TRACON SMA TRACON (SMA)
10:31AM 38.6819 -90.1778 301° West 183 211 2,800 -1,620 Descending FAA TRACON SMA TRACON (SMA)
10:31AM 38.6914 -90.1975 302° West 170 196 2,100 -1,380 Descending FAA TRACON SMA TRACON (SMA)
10:32AM 38.6983 -90.2117 302° West 157 181 1,900 -660 Descending FAA TRACON SMA TRACON (SMA)
10:32AM 38.7047 -90.2253 301° West 147 169 1,700 -600 Descending FAA TRACON SMA TRACON (SMA)